Location: Eastchurch
(51.4000°N, 0.8667°E)
Time: 20:01:27
(UTC+00:00)

USA 267 - Pass Details

Date: 19 January 2026
Orbit: 1101 x 1107 km, 123.0° (Epoch: 10 January)

Event Time Altitude Azimuth Distance (km) Brightness Sun altitude
Exits shadow 18:57:14 44° 100° (E) 1,495 3.5 -23.4°
Maximum altitude 18:59:33 77° 23° (NNE) 1,133 3.2 -23.7°
Drops below altitude 10° 19:06:06 10° 299° (WNW) 2,966 6.3 -24.7°
Sets 19:08:35 0° 298° (WNW) 3,925 7.1 -25.1°
